Flag for U.S.A. Weather past 2 weeks in Hudson, Wisconsin, U.S.A.

Now
43 °F

Clear.


Feels Like: 37 °F
Forecast: 37 / 51 °F
Wind: 10 mph from Southeast

Location: St. Paul Downtown Holman Field


UV Index: 0 (Low)

Visibility: 10 mi


Pressure: 30.11 "Hg

Humidity: 56%

Dew point: 28 °F

Location of HudsonLocation

Historic Weather in Hudson

°F

Hudson temperature yesterday

Maximum temperature yesterday: 58 °F (at 3:53 PM)
Minimum temperature yesterday: 36 °F (at 5:53 AM)
Average temperature yesterday: 47 °F

Past Weeks' High & Low Weather Summary

 TemperatureHumidityPressure
High74 °F (Apr 20, 2:53 PM)100% (Apr 19, 11:04 PM)30.41 "Hg (Apr 19, 11:04 PM)
Low19 °F (Apr 15, 6:53 AM)16% (Apr 10, 2:53 PM)29.49 "Hg (Apr 9, 10:53 PM)
Average45 °F59%30.00 "Hg
* Reported Apr 8 6:53 AM — Apr 23 6:53 AM, Hudson, Weather by CustomWeather, © 2014

Note: Actual official high and low records may vary slightly from our data, if they occured in-between our weather recording intervals... More about our weather records

Advertising

Historic Weather Conditions — Data for Previous 24 hours

 ConditionsComfort  
Time TempWeatherWind HumidityBarometerVisibility
6:53 AM
Apr 23
43 °FClear.10 mph56%30.11 "Hg10 mi
5:53 AM43 °FClear.8 mph56%30.11 "Hg10 mi
4:53 AM43 °FClear.8 mph53%30.10 "Hg10 mi
3:53 AM43 °FClear.8 mph51%30.10 "Hg10 mi
2:53 AM43 °FClear.7 mph51%30.10 "Hg10 mi
1:53 AM43 °FClear.7 mph49%30.10 "Hg10 mi
12:53 AM45 °FClear.8 mph45%30.10 "Hg10 mi
11:53 PM
Apr 22
44 °FClear.7 mph47%30.10 "Hg10 mi
10:53 PM46 °FClear.No wind46%30.10 "Hg10 mi
9:53 PM46 °FClear.No wind48%30.10 "Hg10 mi
8:53 PM50 °FSunny.No wind36%30.08 "Hg10 mi
7:53 PM53 °FSunny.6 mph31%30.06 "Hg10 mi
6:53 PM55 °FSunny.8 mph31%30.06 "Hg10 mi
5:53 PM57 °FSunny.9 mph31%30.06 "Hg10 mi
4:53 PM57 °FSunny.14 mph31%30.06 "Hg10 mi
3:53 PM58 °FSunny.16 mph32%30.07 "Hg10 mi
2:53 PM56 °FSunny.16 mph36%30.09 "Hg10 mi
1:53 PM55 °FSunny.17 mph37%30.11 "Hg10 mi
12:53 PM53 °FSunny.14 mph39%30.12 "Hg10 mi
11:53 AM51 °FSunny.14 mph41%30.15 "Hg10 mi
10:53 AM49 °FSunny.17 mph44%30.14 "Hg10 mi
9:53 AM46 °FSunny.17 mph48%30.15 "Hg10 mi
8:53 AM43 °FSunny.14 mph51%30.15 "Hg10 mi
Weather by CustomWeather, © 2014

See weather overview